| time (UTC) | temp F | wind direction | speed knots | gust knots | rain 1hr in | rain 24hr in | rain mn in | humidity % | barometer mb |
| 20260504033030 | 55 | 194 | 0.9 | 5.2 | 0.00 | 0.00 | 0.00 | 55 | 1012.4 |
| 20260504032530 | 55 | 184 | 1.7 | 7.8 | 0.00 | 0.00 | 0.00 | 55 | 1012.4 |
| 20260504032029 | 55 | 188 | 2.6 | 9.6 | 0.00 | 0.00 | 0.00 | 55 | 1012.4 |
| 20260504031529 | 55 | 179 | 3.5 | 7.0 | 0.00 | 0.00 | 0.00 | 55 | 1012.4 |
| 20260504031026 | 55 | 202 | 1.7 | 7.0 | 0.00 | 0.00 | 0.00 | 55 | 1012.4 |
| 20260504030526 | 55 | 180 | 2.6 | 7.8 | 0.00 | 0.00 | 0.00 | 54 | 1012.4 |
| 20260504030025 | 55 | 188 | 2.6 | 10.4 | 0.00 | 0.00 | 0.00 | 54 | 1012.4 |
| 20260504025525 | 56 | 196 | 2.6 | 10.4 | 0.00 | 0.00 | 0.00 | 54 | 1012.4 |
| 20260504025024 | 56 | 188 | 4.3 | 8.7 | 0.00 | 0.00 | 0.00 | 54 | 1012.5 |
| 20260504024524 | 56 | 200 | 3.5 | 8.7 | 0.00 | 0.00 | 0.00 | 54 | 1012.4 |
| 20260504024022 | 56 | 203 | 1.7 | 9.6 | 0.00 | 0.00 | 0.00 | 53 | 1012.4 |
| 20260504023522 | 56 | 205 | 4.3 | 8.7 | 0.00 | 0.00 | 0.00 | 53 | 1012.4 |
| 20260504023021 | 56 | 192 | 2.6 | 7.8 | 0.00 | 0.00 | 0.00 | 53 | 1012.4 |
| 20260504022524 | 56 | 208 | 3.5 | 9.6 | 0.00 | 0.00 | 0.00 | 53 | 1012.4 |
| 20260504022021 | 56 | 219 | 3.5 | 9.6 | 0.00 | 0.00 | 0.00 | 53 | 1012.4 |
| 20260504021520 | 56 | 211 | 4.3 | 10.4 | 0.00 | 0.00 | 0.00 | 53 | 1012.4 |
| 20260504021019 | 56 | 193 | 3.5 | 10.4 | 0.00 | 0.00 | 0.00 | 53 | 1012.4 |
| 20260504020519 | 56 | 185 | 2.6 | 7.8 | 0.00 | 0.00 | 0.00 | 53 | 1012.5 |
| 20260504020020 | 56 | 197 | 1.7 | 9.6 | 0.00 | 0.00 | 0.00 | 53 | 1012.5 |
| 20260504015519 | 56 | 191 | 2.6 | 10.4 | 0.00 | 0.00 | 0.00 | 53 | 1012.4 |
| 20260504015021 | 56 | 182 | 2.6 | 10.4 | 0.00 | 0.00 | 0.00 | 54 | 1012.4 |
| 20260504014524 | 56 | 202 | 4.3 | 9.6 | 0.00 | 0.00 | 0.00 | 54 | 1012.4 |
| 20260504014017 | 56 | 182 | 2.6 | 8.7 | 0.00 | 0.00 | 0.00 | 55 | 1012.5 |
| 20260504013516 | 56 | 193 | 2.6 | 8.7 | 0.00 | 0.00 | 0.00 | 55 | 1012.4 |
| 20260504013015 | 56 | 187 | 1.7 | 7.8 | 0.00 | 0.00 | 0.00 | 55 | 1012.5 |
| 20260504012515 | 56 | 168 | 1.7 | 7.8 | 0.00 | 0.00 | 0.00 | 55 | 1012.6 |
| 20260504012014 | 56 | 173 | 0.0 | 6.1 | 0.00 | 0.00 | 0.00 | 55 | 1012.6 |
| 20260504011512 | 57 | 175 | 0.0 | 6.1 | 0.00 | 0.00 | 0.00 | 54 | 1012.6 |
| 20260504011011 | 57 | 172 | 0.0 | 5.2 | 0.00 | 0.00 | 0.00 | 53 | 1012.6 |
| 20260504010510 | 57 | 182 | 2.6 | 7.0 | 0.00 | 0.00 | 0.00 | 53 | 1012.7 |
| 20260504010010 | 57 | 198 | 0.9 | 7.0 | 0.00 | 0.00 | 0.00 | 53 | 1012.7 |
| 20260504005512 | 57 | 209 | 2.6 | 7.0 | 0.00 | 0.00 | 0.00 | 53 | 1012.6 |
| 20260504005010 | 57 | 188 | 2.6 | 7.0 | 0.00 | 0.00 | 0.00 | 53 | 1012.6 |
| 20260504004517 | 58 | 192 | 0.9 | 6.1 | 0.00 | 0.00 | 0.00 | 54 | 1012.6 |
| 20260504004008 | 58 | 196 | 0.9 | 6.1 | 0.00 | 0.00 | 0.00 | 54 | 1012.6 |
| 20260504003511 | 58 | 217 | 0.0 | 0.0 | 0.00 | 0.00 | 0.00 | 54 | 1012.7 |
| 20260504003007 | 58 | 184 | 0.0 | 0.0 | 0.00 | 0.00 | 0.00 | 54 | 1012.7 |
| 20260504002506 | 58 | 180 | 0.0 | 0.0 | 0.00 | 0.00 | 0.00 | 53 | 1012.6 |
| 20260504002104 | 58 | 187 | 0.0 | 0.0 | 0.00 | 0.00 | 0.00 | 53 | 1012.7 |
| 20260504001504 | 59 | 188 | 0.0 | 0.0 | 0.00 | 0.00 | 0.00 | 53 | 1012.8 |
| 20260504001003 | 59 | 189 | 0.0 | 0.9 | 0.00 | 0.00 | 0.00 | 53 | 1012.8 |
| 20260504000503 | 59 | 190 | 0.0 | 6.1 | 0.00 | 0.00 | 0.00 | 52 | 1012.8 |
| 20260504000002 | 59 | 193 | 0.0 | 6.1 | 0.00 | 0.00 | 0.00 | 52 | 1012.8 |
| 20260503235501 | 59 | 209 | 0.0 | 7.0 | 0.00 | 0.00 | 0.00 | 52 | 1012.8 |
| 20260503235106 | 59 | 179 | 1.7 | 7.0 | 0.00 | 0.00 | 0.00 | 52 | 1012.9 |
| 20260503234628 | 59 | 219 | 0.9 | 7.0 | 0.00 | 0.00 | 0.00 | 53 | 1012.9 |
| 20260503234502 | 60 | 212 | 0.0 | 0.9 | 0.00 | 0.00 | 0.00 | 53 | 1012.9 |
| 20260503234103 | 60 | 197 | 0.0 | 0.9 | 0.00 | 0.00 | 0.00 | 53 | 1012.9 |
| 20260503233558 | 60 | 200 | 0.0 | 7.0 | 0.00 | 0.00 | 0.00 | 53 | 1013.0 |
| 20260503233057 | 60 | 217 | 0.0 | 7.0 | 0.00 | 0.00 | 0.00 | 52 | 1013.0 |
| 20260503232556 | 60 | 202 | 2.6 | 7.0 | 0.00 | 0.00 | 0.00 | 52 | 1013.1 |
| 20260503232057 | 60 | 207 | 0.9 | 6.1 | 0.00 | 0.00 | 0.00 | 53 | 1013.1 |
| 20260503231556 | 60 | 209 | 0.0 | 6.1 | 0.00 | 0.00 | 0.00 | 52 | 1013.1 |
| 20260503231055 | 60 | 188 | 0.9 | 6.1 | 0.00 | 0.00 | 0.00 | 52 | 1013.1 |
| 20260503230557 | 60 | 196 | 0.0 | 5.2 | 0.00 | 0.00 | 0.00 | 52 | 1013.1 |
| 20260503230054 | 61 | 190 | 0.9 | 5.2 | 0.00 | 0.00 | 0.00 | 52 | 1013.1 |
| 20260503225552 | 61 | 199 | 0.0 | 4.3 | 0.00 | 0.00 | 0.00 | 51 | 1013.1 |
| 20260503225053 | 61 | 207 | 0.9 | 5.2 | 0.00 | 0.00 | 0.00 | 51 | 1013.1 |
| 20260503224551 | 61 | 209 | 0.0 | 5.2 | 0.00 | 0.00 | 0.00 | 51 | 1013.0 |
| 20260503224052 | 62 | 200 | 0.0 | 5.2 | 0.00 | 0.00 | 0.00 | 51 | 1013.1 |
| 20260503223551 | 62 | 224 | 0.9 | 7.8 | 0.00 | 0.00 | 0.00 | 51 | 1013.1 |
| 20260503223050 | 62 | 204 | 2.6 | 8.7 | 0.00 | 0.00 | 0.00 | 50 | 1013.1 |
| 20260503222552 | 62 | 212 | 2.6 | 9.6 | 0.00 | 0.00 | 0.00 | 50 | 1013.1 |
| 20260503222048 | 62 | 190 | 0.0 | 7.0 | 0.00 | 0.00 | 0.00 | 50 | 1013.2 |
| 20260503221556 | 62 | 211 | 1.7 | 7.0 | 0.00 | 0.00 | 0.00 | 50 | 1013.1 |
| 20260503221047 | 62 | 232 | 2.6 | 7.0 | 0.00 | 0.00 | 0.00 | 50 | 1013.2 |
| 20260503220547 | 62 | 201 | 1.7 | 6.1 | 0.00 | 0.00 | 0.00 | 50 | 1013.2 |
| 20260503220047 | 62 | 199 | 0.0 | 0.9 | 0.00 | 0.00 | 0.00 | 49 | 1013.2 |
| 20260503215547 | 63 | 193 | 0.0 | 0.0 | 0.00 | 0.00 | 0.00 | 49 | 1013.2 |
| 20260503215046 | 63 | 196 | 0.0 | 0.0 | 0.00 | 0.00 | 0.00 | 49 | 1013.2 |
| 20260503214546 | 63 | 213 | 0.0 | 0.0 | 0.00 | 0.00 | 0.00 | 49 | 1013.3 |
| 20260503214050 | 63 | 208 | 0.0 | 0.0 | 0.00 | 0.00 | 0.00 | 49 | 1013.2 |
| 20260503213546 | 63 | 209 | 0.0 | 0.0 | 0.00 | 0.00 | 0.00 | 48 | 1013.2 |
| 20260503213046 | 64 | 209 | 0.0 | 0.0 | 0.00 | 0.00 | 0.00 | 48 | 1013.2 |
| 20260503212545 | 64 | 213 | 0.0 | 0.0 | 0.00 | 0.00 | 0.00 | 47 | 1013.2 |
| 20260503212044 | 64 | 213 | 0.0 | 0.0 | 0.00 | 0.00 | 0.00 | 47 | 1013.2 |
| 20260503211545 | 64 | 208 | 0.0 | 0.0 | 0.00 | 0.00 | 0.00 | 46 | 1013.2 |
| 20260503211044 | 64 | 208 | 0.0 | 0.0 | 0.00 | 0.00 | 0.00 | 46 | 1013.3 |
| 20260503210545 | 65 | 199 | 0.0 | 4.3 | 0.00 | 0.00 | 0.00 | 46 | 1013.2 |
| 20260503210045 | 65 | 229 | 0.0 | 5.2 | 0.00 | 0.00 | 0.00 | 46 | 1013.2 |
| 20260503205550 | 65 | 223 | 0.0 | 4.3 | 0.00 | 0.00 | 0.00 | 45 | 1013.3 |
| 20260503205045 | 65 | 207 | 0.0 | 3.5 | 0.00 | 0.00 | 0.00 | 45 | 1013.3 |
| 20260503204546 | 66 | 209 | 0.9 | 6.1 | 0.00 | 0.00 | 0.00 | 44 | 1013.3 |
| 20260503204044 | 66 | 195 | 0.9 | 6.1 | 0.00 | 0.00 | 0.00 | 44 | 1013.3 |
| 20260503203544 | 66 | 188 | 0.0 | 5.2 | 0.00 | 0.00 | 0.00 | 44 | 1013.2 |
| 20260503203054 | 66 | 171 | 0.0 | 6.1 | 0.00 | 0.00 | 0.00 | 44 | 1013.2 |
| 20260503202643 | 66 | 184 | 2.6 | 7.0 | 0.00 | 0.00 | 0.00 | 43 | 1013.2 |
| 20260503202043 | 67 | 206 | 0.9 | 7.0 | 0.00 | 0.00 | 0.00 | 43 | 1013.2 |
| 20260503201548 | 67 | 202 | 0.0 | 8.7 | 0.00 | 0.00 | 0.00 | 42 | 1013.2 |
| 20260503201043 | 67 | 205 | 1.7 | 8.7 | 0.00 | 0.00 | 0.00 | 42 | 1013.2 |
| 20260503200542 | 67 | 201 | 3.5 | 7.8 | 0.00 | 0.00 | 0.00 | 42 | 1013.2 |
| 20260503200042 | 68 | 212 | 2.6 | 10.4 | 0.00 | 0.00 | 0.00 | 41 | 1013.2 |
| 20260503195546 | 68 | 213 | 1.7 | 7.8 | 0.00 | 0.00 | 0.00 | 41 | 1013.3 |
| 20260503195044 | 68 | 193 | 0.0 | 9.6 | 0.00 | 0.00 | 0.00 | 41 | 1013.3 |
| 20260503194550 | 69 | 201 | 3.5 | 10.4 | 0.00 | 0.00 | 0.00 | 40 | 1013.3 |
| 20260503194042 | 69 | 194 | 4.3 | 13.0 | 0.00 | 0.00 | 0.00 | 40 | 1013.3 |
| 20260503193542 | 69 | 181 | 5.2 | 13.0 | 0.00 | 0.00 | 0.00 | 39 | 1013.3 |
| 20260503193043 | 69 | 207 | 3.5 | 13.0 | 0.00 | 0.00 | 0.00 | 39 | 1013.3 |
| 20260503192540 | 69 | 188 | 5.2 | 13.0 | 0.00 | 0.00 | 0.00 | 39 | 1013.3 |
| 20260503192040 | 69 | 217 | 3.5 | 12.2 | 0.00 | 0.00 | 0.00 | 39 | 1013.3 |
| 20260503191540 | 69 | 169 | 7.0 | 13.0 | 0.00 | 0.00 | 0.00 | 39 | 1013.3 |
| 20260503191042 | 69 | 165 | 5.2 | 13.0 | 0.00 | 0.00 | 0.00 | 39 | 1013.3 |
| 20260503190540 | 70 | 201 | 1.7 | 9.6 | 0.00 | 0.00 | 0.00 | 39 | 1013.3 |
| 20260503190045 | 70 | 186 | 3.5 | 9.6 | 0.00 | 0.00 | 0.00 | 39 | 1013.3 |
| 20260503185539 | 70 | 187 | 4.3 | 10.4 | 0.00 | 0.00 | 0.00 | 39 | 1013.2 |
| 20260503185039 | 70 | 232 | 4.3 | 10.4 | 0.00 | 0.00 | 0.00 | 38 | 1013.2 |
| 20260503184539 | 70 | 202 | 2.6 | 9.6 | 0.00 | 0.00 | 0.00 | 38 | 1013.2 |
| 20260503184039 | 70 | 202 | 1.7 | 8.7 | 0.00 | 0.00 | 0.00 | 38 | 1013.1 |
| 20260503183539 | 71 | 188 | 0.9 | 7.0 | 0.00 | 0.00 | 0.00 | 37 | 1013.1 |
| 20260503183038 | 71 | 178 | 0.9 | 8.7 | 0.00 | 0.00 | 0.00 | 37 | 1013.0 |
| 20260503182538 | 72 | 177 | 2.6 | 8.7 | 0.00 | 0.00 | 0.00 | 36 | 1013.0 |
| 20260503182038 | 72 | 196 | 2.6 | 10.4 | 0.00 | 0.00 | 0.00 | 36 | 1012.9 |
| 20260503181639 | 72 | 192 | 4.3 | 11.3 | 0.00 | 0.00 | 0.00 | 35 | 1013.0 |
| 20260503181037 | 73 | 202 | 3.5 | 11.3 | 0.00 | 0.00 | 0.00 | 35 | 1012.9 |
| 20260503180537 | 73 | 211 | 3.5 | 9.6 | 0.00 | 0.00 | 0.00 | 35 | 1012.9 |
| 20260503180036 | 73 | 171 | 3.5 | 10.4 | 0.00 | 0.00 | 0.00 | 34 | 1012.9 |
| 20260503175536 | 74 | 183 | 2.6 | 13.0 | 0.00 | 0.00 | 0.00 | 34 | 1012.9 |
| 20260503175036 | 74 | 203 | 6.1 | 13.0 | 0.00 | 0.00 | 0.00 | 33 | 1012.8 |
| 20260503174536 | 75 | 184 | 3.5 | 9.6 | 0.00 | 0.00 | 0.00 | 33 | 1012.7 |
| 20260503174036 | 75 | 187 | 4.3 | 14.8 | 0.00 | 0.00 | 0.00 | 33 | 1012.8 |
| 20260503173536 | 75 | 202 | 3.5 | 14.8 | 0.00 | 0.00 | 0.00 | 32 | 1012.7 |
| 20260503173039 | 76 | 200 | 0.9 | 10.4 | 0.00 | 0.00 | 0.00 | 32 | 1012.8 |
| 20260503172537 | 76 | 180 | 5.2 | 10.4 | 0.00 | 0.00 | 0.00 | 31 | 1012.7 |
| 20260503172035 | 76 | 211 | 2.6 | 11.3 | 0.00 | 0.00 | 0.00 | 30 | 1012.7 |
| 20260503171544 | 77 | 182 | 4.3 | 11.3 | 0.00 | 0.00 | 0.00 | 30 | 1012.8 |
| 20260503171034 | 77 | 200 | 6.1 | 11.3 | 0.00 | 0.00 | 0.00 | 29 | 1012.7 |
| 20260503170536 | 77 | 219 | 7.8 | 14.8 | 0.00 | 0.00 | 0.00 | 29 | 1012.8 |
| 20260503150526 | 79 | 183 | 8.7 | 22.6 | 0.00 | 0.00 | 0.00 | 26 | 1013.2 |
| 20260503131012 | 79 | 189 | 10.4 | 22.6 | 0.00 | 0.00 | 0.00 | 27 | 1014.6 |
| 20260503130510 | 79 | 224 | 12.2 | 24.3 | 0.00 | 0.00 | 0.00 | 26 | 1014.6 |
| 20260503110556 | 77 | 267 | 13.0 | 20.0 | 0.00 | 0.00 | 0.00 | 27 | 1015.7 |
| 20260503110109 | 75 | 217 | 8.7 | 22.6 | 0.00 | 0.00 | 0.00 | 28 | 1015.6 |
| 20260503081523 | 72 | 260 | 4.3 | 20.0 | 0.00 | 0.00 | 0.00 | 39 | 1016.9 |
| 20260503081026 | 70 | 227 | 10.4 | 20.9 | 0.00 | 0.00 | 0.00 | 40 | 1016.9 |
| 20260503080521 | 70 | 219 | 8.7 | 21.7 | 0.00 | 0.00 | 0.00 | 40 | 1017.0 |
| 20260503072513 | 68 | 184 | 5.2 | 13.0 | 0.00 | 0.00 | 0.00 | 44 | 1017.2 |
| 20260503072012 | 68 | 259 | 7.0 | 16.5 | 0.00 | 0.00 | 0.00 | 44 | 1017.2 |
| 20260503071516 | 67 | 238 | 9.6 | 20.0 | 0.00 | 0.00 | 0.00 | 44 | 1017.2 |
| 20260503071011 | 67 | 225 | 8.7 | 20.0 | 0.00 | 0.00 | 0.00 | 44 | 1017.2 |
| 20260503070509 | 67 | 194 | 7.0 | 19.1 | 0.00 | 0.00 | 0.00 | 43 | 1017.2 |
| 20260503060109 | 62 | 219 | 4.3 | 12.2 | 0.00 | 0.00 | 0.00 | 53 | 1017.0 |
| 20260503055047 | 61 | 153 | 5.2 | 12.2 | 0.00 | 0.00 | 0.00 | 55 | 1017.0 |
| 20260503054556 | 60 | 165 | 6.1 | 17.4 | 0.00 | 0.00 | 0.00 | 55 | 1017.1 |
| 20260503054045 | 60 | 155 | 7.8 | 17.4 | 0.00 | 0.00 | 0.00 | 55 | 1017.2 |
| 20260503053543 | 59 | 184 | 7.0 | 17.4 | 0.00 | 0.00 | 0.00 | 56 | 1017.2 |
| 20260503053042 | 59 | 191 | 4.3 | 13.9 | 0.00 | 0.00 | 0.00 | 57 | 1017.3 |
| 20260503052540 | 58 | 186 | 6.1 | 13.9 | 0.00 | 0.00 | 0.00 | 58 | 1017.3 |
| 20260503052039 | 58 | 206 | 7.0 | 12.2 | 0.00 | 0.00 | 0.00 | 58 | 1017.3 |
| 20260503051538 | 57 | 167 | 0.9 | 9.6 | 0.00 | 0.00 | 0.00 | 59 | 1017.3 |
| 20260503051036 | 57 | 165 | 1.7 | 13.9 | 0.00 | 0.00 | 0.00 | 60 | 1017.3 |
| 20260503050534 | 57 | 169 | 2.6 | 13.9 | 0.00 | 0.00 | 0.00 | 61 | 1017.4 |
| 20260503050039 | 56 | 199 | 1.7 | 9.6 | 0.00 | 0.00 | 0.00 | 61 | 1017.5 |
| 20260503045534 | 56 | 178 | 0.0 | 6.1 | 0.00 | 0.00 | 0.00 | 63 | 1017.5 |
| 20260503045032 | 55 | 150 | 0.9 | 8.7 | 0.00 | 0.00 | 0.00 | 64 | 1017.5 |
| 20260503044531 | 55 | 164 | 2.6 | 8.7 | 0.00 | 0.00 | 0.00 | 64 | 1017.5 |
| 20260503044027 | 54 | 165 | 1.7 | 7.8 | 0.00 | 0.00 | 0.00 | 66 | 1017.5 |
| 20260503043528 | 54 | 148 | 2.6 | 7.0 | 0.00 | 0.00 | 0.00 | 66 | 1017.5 |
| 20260503043024 | 53 | 160 | 0.9 | 6.1 | 0.00 | 0.00 | 0.00 | 68 | 1017.5 |
| 20260503042524 | 53 | 147 | 0.0 | 7.0 | 0.00 | 0.00 | 0.00 | 69 | 1017.5 |
| 20260503042022 | 52 | 157 | 0.9 | 7.8 | 0.00 | 0.00 | 0.00 | 70 | 1017.6 |
| 20260503041529 | 51 | 157 | 0.9 | 7.8 | 0.00 | 0.00 | 0.00 | 71 | 1017.6 |
| 20260503041018 | 51 | 158 | 0.0 | 0.9 | 0.00 | 0.00 | 0.00 | 72 | 1017.6 |
| 20260503040517 | 50 | 153 | 0.0 | 0.0 | 0.00 | 0.00 | 0.00 | 73 | 1017.6 |
| 20260503040017 | 50 | 144 | 0.0 | 0.0 | 0.00 | 0.00 | 0.00 | 74 | 1017.7 |
| 20260503035516 | 49 | 164 | 0.0 | 0.0 | 0.00 | 0.00 | 0.00 | 74 | 1017.7 |
| 20260503035016 | 49 | 149 | 0.0 | 0.0 | 0.00 | 0.00 | 0.00 | 74 | 1017.7 |
| 20260503034516 | 49 | 207 | 0.0 | 0.0 | 0.00 | 0.00 | 0.00 | 74 | 1017.7 |
| 20260503034015 | 49 | 202 | 0.0 | 0.0 | 0.00 | 0.00 | 0.00 | 74 | 1017.7 |
| 20260503033516 | 49 | 202 | 0.0 | 0.0 | 0.00 | 0.00 | 0.00 | 74 | 1017.7 |